QPF
0.00 0.00 0.00 0.00 0.00 0.00 0.00 0.00 0.00 0.00 0.00 0.00 0.00 0.00 0.00 0.00 0.00 0.00 0.00 0.00 0.00 0.00 0.00 0.00 0.00 0.00 0.00 0.00 0.00 0.00 0.00 0.00 0.00 0.00 0.00 0.00 0.00 0.00 0.00 0.00 0.00 0.00 0.00 0.00 0.00
0.00 0.00 0.00 0.00 0.00 0.00 0.00 0.00 0.00 0.00 0.00 0.00 0.00 0.00 0.00 0.00 0.00 0.00 0.00 0.00 0.00 0.00 0.00 0.00 0.00 0.00 0.00 0.00 0.00 0.00 0.00 0.00 0.00 0.00 0.00 0.00 0.00 0.00 0.00 0.00 0.00 0.00 0.00 0.00 0.00
0.00 0.00 0.00 0.00 0.00 0.00 0.00 0.00 0.00 0.00 0.00 0.00 0.00 0.00 0.00 0.00 0.00 0.00 0.00 0.00 0.00 0.00 0.00 0.00 0.00 0.00 0.00 0.00 0.00 0.00 0.00 0.00 0.00 0.00 0.00 0.00 0.00 0.00 0.00 0.00 0.00 0.00 0.00 0.00 0.00
0.00 0.00 0.00 0.00 0.00 0.00 0.00 0.00 0.00 0.00 0.00 0.00 0.00 0.00 0.00 0.00 0.00 0.00 0.00 0.00 0.00 0.00 0.00 0.00 0.00 0.00 0.00 0.00 0.00 0.00 0.00 0.00 0.00 0.00 0.00 0.00 0.00 0.00 0.00 0.00 0.00 0.00 0.00 0.00 0.00
0.00 0.00 0.00 0.00 0.00 0.00 0.00 0.00 0.00 0.00 0.00 0.00 0.00 0.00 0.00 0.00 0.00 0.00 0.00 0.00 0.00 0.00 0.00 0.00 0.00 0.00 0.00 0.00 0.00 0.00 0.00 0.00 0.00 0.00 0.00 0.00 0.00 0.00 0.00 0.00 0.00 0.00 0.00 0.00 0.00
0.00 0.00 0.00 0.00 0.00 0.00 0.00 0.00 0.00 0.00 0.00 0.00 0.00 0.00 0.00 0.00 0.00 0.00 0.00 0.00 0.00 0.00 0.00 0.00 0.00 0.00 0.00 0.00 0.00 0.00 0.00 0.00 0.00 0.00 0.00 0.00 0.00 0.00 0.00 0.00 0.00 0.00 0.00 0.00 0.00
0.00 0.00 0.00 0.00 0.00 0.00 0.00 0.00 0.00 0.00 0.00 0.00 0.00 0.00 0.00 0.00 0.00 0.00 0.00 0.00 0.00 0.00 0.00 0.00 0.00 0.00 0.00 0.00 0.00 0.00 0.00 0.00 0.00 0.00 0.00 0.00 0.00 0.00 0.00 0.00 0.00 0.00 0.00 0.00 0.00
0.00 0.00 0.00 0.00 0.00 0.00 0.00 0.00 0.00 0.00 0.00 0.00 0.00 0.00 0.00 0.00 0.00 0.00 0.00 0.00 0.00 0.00 0.00 0.00 0.00 0.00 0.00 0.00 0.00 0.00 0.00 0.00 0.00 0.00 0.00 0.00 0.00 0.00 0.00 0.00 0.00 0.00 0.00 0.00 0.00
0.00 0.00 0.00 0.00 0.00 0.00 0.00 0.00 0.00 0.00 0.00 0.00 0.00 0.00 0.00 0.00 0.00 0.00 0.00 0.00 0.00 0.00 0.00 0.00 0.00 0.00 0.00 0.00 0.00 0.00 0.00 0.00 0.00 0.00 0.00 0.00 0.00 0.00 0.00 0.00 0.00 0.00 0.00 0.00 0.00
0.00 0.00 0.00 0.00 0.00 0.00 0.00 0.00 0.00 0.00 0.00 0.00 0.00 0.00 0.00 0.00 0.00 0.00 0.00 0.00 0.00 0.00 0.00 0.00 0.00 0.00 0.00 0.00 0.00 0.00 0.00 0.00 0.00 0.00 0.00 0.00 0.00 0.00 0.00 0.00 0.00 0.00 0.00 0.00 0.00
0.00 0.00 0.00 0.00 0.00 0.00 0.00 0.00 0.00 0.00 0.00 0.00 0.00 0.00 0.00 0.00 0.00 0.00 0.00 0.00 0.00 0.00 0.00 0.00 0.00 0.00 0.00 0.00 0.00 0.00 0.00 0.00 0.00 0.00 0.00 0.00 0.00 0.00 0.00 0.00 0.00 0.00 0.00 0.00 0.00
0.00 0.00 0.00 0.00 0.00 0.00 0.00 0.00 0.00 0.00 0.00 0.00 0.00 0.00 0.00 0.00 0.00 0.00 0.00 0.00 0.00 0.00 0.00 0.00 0.00 0.00 0.00 0.00 0.00 0.00 0.00 0.00 0.00 0.00 0.00 0.00 0.00 0.00 0.00 0.00 0.00 0.00 0.00 0.00 0.00
0.00 0.00 0.00 0.00 0.00 0.00 0.00 0.00 0.00 0.00 0.00 0.00 0.00 0.00 0.00 0.00 0.00 0.00 0.00 0.00 0.00 0.00 0.00 0.00 0.00 0.00 0.00 0.00 0.00 0.00 0.00 0.00 0.00 0.00 0.00 0.00 0.00 0.00 0.00 0.00 0.00 0.00 0.00 0.00 0.00
0.00 0.00 0.00 0.00 0.00 0.00 0.00 0.00 0.00 0.00 0.00 0.00 0.00 0.00 0.00 0.00 0.00 0.00 0.00 0.00 0.00 0.00 0.00 0.00 0.00 0.00 0.00 0.00 0.00 0.00 0.00 0.00 0.00 0.00 0.00 0.00 0.00 0.00 0.00 0.00 0.00 0.00 0.00 0.00 0.00
0.00 0.00 0.00 0.00 0.00 0.00 0.00 0.00 0.00 0.00 0.00 0.00 0.00 0.00 0.00 0.00 0.00 0.00 0.00 0.00 0.00 0.00 0.00 0.00 0.00 0.00 0.00 0.00 0.00 0.00 0.00 0.00 0.00 0.00 0.00 0.00 0.00 0.00 0.00 0.00 0.00 0.00 0.00 0.00 0.00
0.00 0.00 0.00 0.00 0.00 0.00 0.00 0.00 0.00 0.00 0.00 0.00 0.00 0.00 0.00 0.00 0.00 0.00 0.00 0.00 0.00 0.00 0.00 0.00 0.00 0.00 0.00 0.00 0.00 0.00 0.00 0.00 0.00 0.00 0.00 0.00 0.00 0.00 0.00 0.00 0.00 0.00 0.00 0.00 0.00
0.00 0.00 0.00 0.00 0.00 0.00 0.00 0.00 0.00 0.00 0.00 0.00 0.00 0.00 0.00 0.00 0.00 0.00 0.00 0.00 0.00 0.00 0.00 0.00 0.00 0.00 0.00 0.00 0.00 0.00 0.00 0.00 0.00 0.00 0.00 0.00 0.00 0.00 0.00 0.00 0.00 0.00 0.00 0.00 0.00
0.00 0.00 0.00 0.00 0.00 0.00 0.00 0.00 0.00 0.00 0.00 0.00 0.00 0.00 0.00 0.00 0.00 0.00 0.00 0.00 0.00 0.00 0.00 0.00 0.00 0.00 0.00 0.00 0.00 0.00 0.00 0.00 0.00 0.00 0.00 0.00 0.00 0.00 0.00 0.00 0.00 0.00 0.00 0.00 0.00
0.00 0.00 0.00 0.00 0.00 0.00 0.00 0.00 0.00 0.00 0.00 0.00 0.00 0.00 0.00 0.00 0.00 0.00 0.00 0.00 0.00 0.00 0.00 0.00 0.00 0.00 0.00 0.00 0.00 0.00 0.00 0.00 0.00 0.00 0.00 0.00 0.00 0.00 0.00 0.00 0.00 0.00 0.00 0.00 0.00
0.00 0.00 0.00 0.00 0.00 0.00 0.00 0.00 0.00 0.00 0.00 0.00 0.00 0.00 0.00 0.00 0.00 0.00 0.00 0.00 0.00 0.00 0.00 0.00 0.00 0.00 0.00 0.00 0.00 0.00 0.00 0.00 0.00 0.00 0.00 0.00 0.00 0.00 0.00 0.00 0.00 0.00 0.00 0.00 0.00
0.00 0.00 0.00 0.00 0.00 0.00 0.00 0.00 0.00 0.00 0.00 0.00 0.00 0.00 0.00 0.00 0.00 0.00 0.00 0.00 0.00 0.00 0.00 0.00 0.00 0.00 0.00 0.00 0.00 0.00 0.00 0.00 0.00 0.00 0.00 0.00 0.00 0.00 0.00 0.00 0.00 0.00 0.00 0.00 0.00
0.00 0.00 0.00 0.00 0.00 0.00 0.00 0.00 0.00 0.00 0.00 0.00 0.00 0.00 0.00 0.00 0.00 0.00 0.00 0.00 0.00 0.00 0.00 0.00 0.00 0.00 0.00 0.00 0.00 0.00 0.00 0.00 0.00 0.00 0.00 0.00 0.00 0.00 0.00 0.00 0.00 0.00 0.00 0.00 0.00
0.00 0.00 0.00 0.00 0.00 0.00 0.00 0.00 0.00 0.00 0.00 0.00 0.00 0.00 0.00 0.00 0.00 0.00 0.00 0.00 0.00 0.00 0.00 0.00 0.00 0.00 0.00 0.00 0.00 0.00 0.00 0.00 0.00 0.00 0.00 0.00 0.00 0.00 0.00 0.00 0.00 0.00 0.00 0.00 0.00
0.00 0.00 0.00 0.00 0.00 0.00 0.00 0.00 0.00 0.00 0.00 0.00 0.00 0.00 0.00 0.00 0.00 0.00 0.00 0.00 0.00 0.00 0.00 0.00 0.00 0.00 0.00 0.00 0.00 0.00 0.00 0.00 0.00 0.00 0.00 0.00 0.00 0.00 0.00 0.00 0.00 0.00 0.00 0.00 0.00
0.00 0.00 0.00 0.00 0.00 0.00 0.00 0.00 0.00 0.00 0.00 0.00 0.00 0.00 0.00 0.00 0.00 0.00 0.00 0.00 0.00 0.00 0.00 0.00 0.00 0.00 0.00 0.00 0.00 0.00 0.00 0.00 0.00 0.00 0.00 0.00 0.00 0.00 0.00 0.00 0.00 0.00 0.00 0.00 0.00
0.00 0.00 0.00 0.00 0.00 0.00 0.00 0.00 0.00 0.00 0.00 0.00 0.00 0.00 0.00 0.00 0.00 0.00 0.00 0.00 0.00 0.00 0.00 0.00 0.00 0.00 0.00 0.00 0.00 0.00 0.00 0.00 0.00 0.00 0.00 0.00 0.00 0.00 0.00 0.00 0.00 0.00 0.00 0.00 0.00
0.00 0.00 0.00 0.00 0.00 0.00 0.00 0.00 0.00 0.00 0.00 0.00 0.00 0.00 0.00 0.00 0.00 0.00 0.00 0.00 0.00 0.00 0.00 0.00 0.00 0.00 0.00 0.00 0.00 0.00 0.00 0.00 0.00 0.00 0.00 0.00 0.00 0.00 0.00 0.00 0.00 0.00 0.00 0.00 0.00
MSLP
1022.49 1022.57 1021.99 1022.03 1021.83 1021.46 1021.13 1020.98 1020.82 1020.70 1020.65 1020.58 1020.29 1020.12 1019.82 1019.56 1019.36 1019.02 1019.22 1020.03 1019.24 1018.36 1017.84 1017.39 1016.99 1017.12 1017.24 1018.16 1018.70 1019.13 1020.78 1022.11 1022.29 1022.10 1021.69 1021.30 1021.25 1021.07 1021.51 1021.68 1021.90 1022.30 1022.42 1022.04 1021.37
1022.73 1022.57 1022.57 1022.08 1022.08 1021.68 1021.22 1021.05 1021.01 1020.84 1020.59 1020.62 1020.54 1020.29 1019.96 1019.79 1019.77 1019.68 1019.91 1019.53 1018.98 1018.39 1018.15 1017.86 1018.09 1018.06 1018.75 1019.50 1019.87 1020.50 1021.95 1022.38 1022.18 1022.06 1022.02 1021.92 1021.96 1022.05 1022.16 1022.57 1022.84 1022.80 1022.70 1022.50 1021.76
1022.73 1022.74 1022.62 1022.17 1021.95 1021.93 1021.55 1021.20 1021.07 1021.00 1020.69 1020.60 1020.60 1020.35 1020.17 1019.88 1020.12 1020.52 1019.84 1019.40 1018.79 1018.40 1018.54 1018.35 1018.42 1018.64 1019.81 1020.34 1021.07 1021.32 1022.21 1022.20 1022.20 1021.91 1021.78 1021.92 1022.30 1022.65 1022.87 1023.47 1024.05 1024.06 1023.30 1022.72 1022.47
1022.93 1022.67 1022.59 1022.51 1021.88 1021.90 1021.65 1021.33 1021.09 1021.03 1020.71 1020.40 1020.47 1020.47 1020.24 1019.94 1021.09 1020.77 1020.11 1019.49 1018.93 1018.45 1018.44 1018.78 1019.03 1019.77 1020.88 1021.27 1021.40 1022.05 1022.18 1022.05 1022.18 1021.93 1021.88 1022.29 1022.79 1023.48 1023.72 1024.43 1024.48 1024.47 1024.07 1023.58 1022.97
1022.96 1022.90 1022.58 1022.48 1022.12 1021.76 1021.87 1021.42 1021.07 1020.95 1020.66 1020.58 1020.22 1020.08 1020.46 1020.97 1021.49 1020.62 1020.42 1019.80 1019.16 1019.06 1019.35 1019.72 1020.15 1020.55 1021.32 1021.52 1021.63 1022.17 1022.48 1022.35 1022.37 1022.32 1022.55 1022.73 1023.33 1023.82 1024.51 1024.58 1024.52 1024.64 1024.57 1024.05 1023.63
1023.03 1023.10 1022.66 1022.67 1022.27 1021.84 1022.00 1021.55 1021.08 1020.89 1020.61 1020.41 1020.24 1020.29 1020.56 1021.29 1021.14 1020.95 1020.73 1020.19 1020.07 1019.79 1020.19 1020.31 1020.82 1020.68 1021.50 1022.03 1022.09 1022.43 1022.66 1022.77 1022.67 1022.76 1022.73 1023.29 1023.85 1024.00 1024.79 1024.96 1025.00 1024.93 1024.78 1024.42 1024.04
1023.11 1023.05 1022.87 1022.76 1022.17 1021.87 1021.62 1021.66 1021.08 1020.89 1020.63 1020.51 1020.15 1020.46 1021.06 1021.72 1021.15 1021.06 1020.85 1020.73 1020.49 1020.27 1020.50 1020.79 1020.92 1021.12 1021.75 1022.49 1022.63 1022.60 1023.00 1023.06 1023.18 1023.17 1023.13 1023.36 1024.21 1024.88 1025.10 1025.22 1025.50 1025.52 1025.21 1024.79 1024.36
1023.10 1022.93 1023.04 1022.65 1022.27 1021.84 1021.52 1021.42 1021.10 1020.64 1020.59 1020.51 1020.30 1020.64 1021.58 1021.20 1021.16 1021.19 1020.97 1020.82 1020.59 1020.56 1020.58 1020.95 1020.94 1021.59 1022.53 1022.77 1023.47 1023.77 1023.93 1024.17 1023.91 1023.77 1023.35 1023.46 1024.59 1025.06 1025.33 1025.58 1025.95 1025.99 1025.68 1025.26 1024.86
1022.75 1022.72 1022.98 1022.57 1022.18 1021.56 1021.48 1021.21 1020.88 1020.56 1020.54 1020.31 1020.48 1020.79 1021.89 1021.38 1021.34 1021.53 1021.53 1021.50 1021.13 1020.94 1021.06 1021.13 1021.62 1023.24 1023.67 1024.16 1024.92 1025.33 1025.41 1025.13 1024.62 1024.34 1024.38 1024.32 1024.87 1025.20 1025.56 1025.88 1026.23 1026.37 1026.23 1025.76 1025.31
1022.52 1022.57 1022.68 1022.45 1022.16 1021.59 1021.12 1020.91 1020.80 1020.50 1020.43 1020.52 1020.86 1021.68 1022.03 1022.72 1022.27 1021.93 1021.67 1021.63 1021.56 1021.51 1021.85 1022.62 1023.89 1025.08 1025.40 1025.62 1026.32 1026.35 1026.37 1025.99 1025.79 1025.38 1024.92 1025.02 1025.20 1025.27 1025.57 1026.02 1026.36 1026.47 1026.35 1026.15 1025.71
1022.72 1022.49 1022.38 1022.27 1022.08 1021.60 1021.20 1020.90 1021.69 1021.73 1022.09 1022.74 1022.88 1022.91 1022.84 1022.90 1022.48 1022.32 1022.15 1021.89 1022.03 1022.81 1023.85 1024.65 1025.74 1027.00 1026.59 1026.64 1026.62 1026.76 1026.83 1027.06 1026.31 1025.78 1025.80 1025.54 1025.49 1025.44 1025.53 1025.91 1026.25 1026.46 1026.39 1026.24 1026.03
1022.67 1022.46 1022.30 1022.17 1022.00 1021.69 1021.55 1022.43 1022.91 1023.42 1023.72 1023.31 1023.01 1023.11 1023.05 1023.25 1023.07 1022.69 1022.14 1022.69 1023.28 1024.51 1024.91 1025.67 1026.65 1026.93 1026.43 1026.76 1027.26 1027.29 1027.32 1027.29 1026.63 1026.21 1026.15 1025.81 1025.79 1025.50 1025.49 1025.72 1026.06 1026.26 1026.20 1026.05 1025.94
1022.64 1022.39 1022.19 1022.05 1021.90 1022.25 1022.47 1023.14 1023.29 1023.04 1023.24 1023.75 1023.38 1023.24 1023.56 1023.43 1023.84 1023.66 1023.34 1023.78 1024.43 1025.32 1025.72 1026.25 1026.95 1026.69 1026.55 1027.12 1027.85 1027.96 1027.91 1027.96 1027.80 1026.81 1026.37 1026.33 1026.03 1025.72 1025.44 1025.60 1025.85 1026.08 1026.14 1026.02 1025.88
1022.49 1022.47 1022.10 1022.02 1022.23 1022.83 1023.16 1023.28 1022.98 1023.11 1023.57 1023.99 1023.48 1023.32 1023.49 1023.49 1024.00 1023.85 1023.89 1024.43 1024.89 1025.86 1026.54 1027.26 1027.28 1026.97 1026.95 1027.45 1028.24 1028.21 1028.09 1028.25 1028.12 1027.91 1027.58 1027.15 1027.06 1025.95 1025.62 1025.56 1025.66 1025.84 1025.97 1026.12 1025.95
1022.49 1022.43 1022.30 1021.89 1022.31 1023.10 1023.60 1023.34 1023.11 1023.23 1024.17 1024.25 1023.68 1023.11 1023.39 1023.96 1024.25 1024.27 1024.29 1024.37 1025.61 1026.36 1027.18 1027.78 1027.51 1027.34 1027.22 1027.80 1028.34 1028.37 1028.46 1028.76 1028.59 1028.61 1028.50 1027.92 1027.87 1025.79 1025.74 1025.67 1025.46 1025.51 1025.68 1025.90 1026.03
1022.62 1022.38 1022.39 1022.28 1022.81 1023.41 1023.33 1023.25 1023.23 1023.90 1023.99 1024.05 1023.69 1023.54 1023.72 1024.06 1024.41 1024.56 1024.75 1024.93 1026.30 1027.12 1027.76 1028.12 1027.61 1027.54 1027.61 1027.84 1028.11 1028.47 1028.52 1029.30 1029.61 1029.50 1029.66 1028.72 1028.33 1026.27 1025.66 1025.21 1025.21 1025.29 1025.45 1025.59 1025.80
1022.60 1022.51 1022.55 1022.70 1023.12 1023.24 1023.16 1023.36 1024.15 1024.54 1024.89 1024.42 1024.05 1023.89 1024.30 1024.60 1024.90 1025.17 1025.86 1026.34 1027.77 1029.05 1029.46 1029.15 1028.50 1028.18 1027.80 1028.04 1028.34 1028.94 1029.53 1030.42 1031.51 1030.76 1030.23 1029.04 1028.37 1025.91 1024.92 1024.71 1024.86 1025.11 1025.34 1025.45 1025.61
1022.50 1022.63 1023.08 1022.94 1023.20 1023.28 1023.08 1023.78 1024.35 1024.04 1024.18 1024.48 1024.45 1024.47 1024.76 1025.06 1025.25 1025.80 1026.50 1027.39 1028.50 1029.73 1030.71 1030.62 1029.63 1028.98 1028.55 1028.83 1029.49 1029.95 1030.69 1031.61 1032.91 1032.78 1031.32 1029.22 1027.77 1025.31 1024.58 1024.51 1024.63 1024.89 1025.13 1025.32 1025.70
1022.63 1022.79 1023.40 1023.09 1023.35 1023.46 1023.27 1024.22 1023.70 1023.50 1023.69 1024.32 1024.83 1024.88 1025.15 1025.32 1025.50 1025.92 1026.91 1027.64 1028.65 1029.64 1030.84 1031.28 1030.76 1029.72 1029.18 1029.02 1029.63 1030.34 1031.01 1031.75 1032.83 1033.77 1032.76 1029.80 1027.43 1025.28 1024.74 1024.64 1024.75 1024.97 1025.22 1025.44 1025.78
1022.30 1023.19 1023.95 1023.08 1023.37 1023.60 1023.72 1024.25 1023.90 1023.49 1023.71 1024.00 1024.37 1024.75 1025.22 1025.39 1025.74 1026.08 1026.88 1027.47 1028.53 1029.32 1030.26 1031.23 1031.54 1030.88 1029.79 1029.32 1029.79 1030.29 1030.95 1031.72 1032.76 1033.73 1033.30 1030.61 1028.62 1026.55 1025.16 1024.77 1024.88 1025.12 1025.41 1025.51 1025.78
1022.24 1023.50 1024.01 1023.22 1023.32 1024.18 1024.77 1024.46 1023.84 1023.72 1023.68 1024.00 1024.13 1024.67 1024.88 1025.18 1025.61 1026.07 1026.56 1027.49 1028.19 1029.31 1030.09 1031.14 1031.32 1031.76 1030.75 1030.28 1030.29 1030.88 1031.18 1031.98 1033.09 1033.51 1033.85 1032.15 1028.68 1025.48 1025.05 1024.88 1025.04 1025.11 1025.25 1025.55 1025.91
1022.25 1023.38 1023.78 1023.45 1024.36 1025.26 1024.99 1023.94 1023.71 1023.93 1023.99 1023.94 1023.91 1024.17 1024.55 1025.08 1025.61 1026.09 1026.52 1027.21 1027.77 1028.73 1029.93 1030.62 1031.17 1031.65 1031.89 1030.79 1030.57 1030.83 1031.35 1032.07 1033.53 1034.02 1034.11 1033.05 1028.41 1025.48 1025.10 1025.02 1025.24 1025.30 1025.30 1025.44 1025.70
1021.89 1023.23 1023.72 1023.72 1024.35 1025.30 1024.70 1024.14 1023.82 1024.09 1023.93 1023.92 1024.00 1024.03 1024.41 1025.02 1025.92 1026.26 1026.75 1027.27 1027.76 1028.50 1029.34 1030.11 1031.04 1031.97 1032.08 1031.80 1031.36 1031.14 1031.57 1032.33 1033.32 1034.10 1034.10 1033.44 1028.38 1026.01 1025.61 1025.36 1025.49 1025.72 1025.57 1025.67 1025.75
1020.99 1023.40 1024.50 1024.17 1023.88 1023.91 1024.45 1024.28 1023.99 1023.83 1023.77 1023.56 1023.93 1024.09 1024.68 1025.47 1025.94 1026.66 1027.30 1027.65 1027.86 1028.37 1028.99 1029.80 1031.43 1031.86 1032.06 1031.34 1031.04 1031.65 1031.10 1032.31 1033.41 1034.53 1033.84 1031.94 1028.81 1026.59 1025.97 1025.98 1025.66 1025.91 1025.84 1025.92 1025.84
1019.77 1020.94 1021.22 1022.88 1023.35 1023.46 1023.49 1023.22 1023.48 1023.63 1023.67 1023.54 1023.99 1023.92 1024.30 1025.83 1026.42 1026.81 1027.42 1028.00 1028.28 1028.51 1029.25 1030.00 1031.62 1032.44 1031.99 1031.72 1031.61 1031.24 1031.01 1031.37 1032.60 1033.04 1032.63 1030.44 1029.54 1026.22 1025.62 1025.86 1025.44 1025.41 1025.67 1026.12 1025.85
1018.55 1019.80 1020.89 1020.99 1021.13 1022.56 1022.86 1022.56 1022.40 1022.66 1022.81 1023.18 1023.23 1023.10 1024.02 1024.53 1024.62 1025.58 1026.58 1027.51 1027.62 1028.91 1029.58 1030.35 1031.60 1032.81 1032.61 1032.12 1031.79 1031.17 1030.23 1030.06 1030.90 1031.81 1031.10 1029.79 1028.00 1025.15 1024.40 1024.42 1024.72 1024.78 1025.17 1025.52 1025.48
1017.33 1017.73 1017.66 1019.36 1020.76 1021.08 1020.19 1020.45 1020.71 1021.42 1022.03 1021.70 1021.83 1023.13 1024.06 1023.89 1024.64 1025.40 1026.07 1026.44 1027.06 1028.28 1029.68 1030.60 1031.77 1033.08 1032.91 1032.26 1031.46 1030.07 1027.80 1028.25 1028.48 1028.67 1028.74 1028.48 1025.29 1024.28 1023.77 1023.70 1023.58 1023.51 1024.03 1024.41 1024.61
Thickness
5658 5656 5663 5663 5664 5669 5672 5673 5674 5677 5676 5674 5677 5679 5683 5685 5685 5686 5681 5675 5679 5684 5686 5688 5688 5681 5677 5665 5656 5649 5619 5607 5606 5605 5605 5605 5600 5599 5592 5584 5579 5572 5569 5578 5582
5655 5656 5655 5661 5660 5664 5670 5671 5671 5673 5676 5674 5673 5676 5680 5682 5681 5677 5676 5676 5679 5682 5682 5681 5674 5670 5656 5649 5642 5629 5603 5609 5609 5605 5601 5596 5586 5575 5573 5562 5559 5562 5559 5562 5569
5654 5652 5652 5658 5660 5659 5663 5667 5669 5670 5674 5674 5672 5674 5676 5679 5676 5669 5675 5677 5680 5680 5678 5675 5672 5664 5647 5640 5628 5625 5607 5610 5605 5601 5595 5588 5575 5561 5557 5550 5543 5540 5546 5551 5554
5649 5652 5652 5651 5659 5658 5660 5664 5667 5667 5671 5675 5672 5670 5673 5677 5668 5668 5672 5675 5678 5679 5677 5669 5662 5650 5634 5628 5624 5613 5611 5609 5599 5593 5585 5571 5559 5546 5541 5537 5535 5533 5535 5537 5543
5646 5646 5649 5650 5654 5657 5655 5661 5665 5666 5670 5669 5673 5673 5670 5662 5658 5667 5668 5671 5673 5673 5665 5660 5649 5642 5630 5627 5621 5611 5605 5600 5591 5583 5568 5560 5549 5545 5533 5532 5530 5527 5524 5527 5532
5644 5641 5646 5645 5650 5655 5651 5657 5663 5665 5668 5670 5671 5669 5667 5655 5662 5662 5664 5666 5663 5664 5656 5651 5643 5641 5628 5618 5612 5607 5598 5590 5582 5571 5564 5552 5545 5542 5528 5521 5517 5517 5514 5517 5521
5641 5640 5641 5641 5648 5652 5654 5653 5661 5663 5666 5666 5670 5666 5656 5650 5660 5660 5661 5659 5658 5658 5652 5647 5641 5637 5628 5615 5610 5606 5594 5585 5574 5563 5560 5550 5538 5526 5518 5512 5505 5502 5503 5507 5511
5639 5640 5637 5640 5645 5649 5653 5654 5658 5663 5663 5663 5666 5663 5649 5656 5656 5656 5657 5656 5655 5654 5651 5644 5640 5630 5616 5613 5597 5589 5579 5565 5570 5557 5556 5551 5531 5523 5512 5503 5493 5489 5489 5494 5499
5641 5640 5635 5639 5642 5649 5649 5652 5657 5661 5660 5662 5662 5659 5647 5653 5653 5652 5650 5647 5648 5649 5643 5640 5631 5610 5602 5592 5577 5563 5566 5564 5556 5553 5542 5539 5528 5519 5506 5495 5485 5479 5480 5485 5490
5639 5638 5636 5637 5639 5644 5649 5651 5653 5657 5659 5657 5655 5650 5646 5639 5643 5646 5647 5645 5644 5643 5635 5622 5603 5586 5575 5569 5557 5571 5557 5551 5545 5542 5536 5530 5523 5516 5504 5492 5484 5479 5476 5477 5483
5631 5635 5636 5636 5636 5640 5644 5647 5642 5644 5638 5629 5632 5635 5636 5636 5641 5641 5639 5642 5638 5624 5615 5602 5585 5573 5576 5573 5576 5567 5558 5539 5541 5542 5527 5529 5518 5510 5506 5495 5489 5482 5478 5478 5479
5627 5631 5633 5633 5633 5636 5638 5631 5629 5631 5624 5627 5631 5631 5633 5631 5632 5635 5638 5634 5622 5609 5609 5592 5584 5582 5582 5571 5561 5559 5550 5535 5534 5534 5527 5525 5514 5511 5505 5500 5492 5486 5483 5482 5479
5621 5626 5629 5631 5631 5628 5626 5623 5623 5627 5625 5623 5623 5625 5623 5627 5621 5622 5626 5622 5612 5598 5591 5587 5591 5586 5580 5562 5553 5547 5544 5534 5528 5527 5529 5513 5509 5509 5508 5501 5492 5486 5483 5483 5481
5616 5618 5625 5626 5626 5619 5617 5617 5622 5622 5598 5621 5621 5621 5622 5623 5618 5620 5617 5615 5607 5599 5589 5582 5581 5583 5571 5564 5549 5552 5546 5537 5532 5523 5518 5513 5489 5506 5502 5496 5494 5488 5480 5478 5480
5608 5612 5615 5622 5619 5615 5611 5613 5617 5618 5598 5615 5614 5620 5619 5616 5614 5613 5610 5611 5600 5595 5589 5585 5578 5574 5571 5563 5552 5550 5539 5533 5535 5526 5515 5519 5474 5509 5506 5498 5493 5491 5484 5480 5480
5598 5604 5608 5612 5611 5607 5608 5609 5612 5601 5600 5603 5609 5610 5614 5609 5609 5609 5604 5601 5593 5585 5578 5574 5577 5573 5567 5559 5553 5546 5550 5530 5518 5513 5471 5520 5492 5504 5506 5511 5504 5497 5489 5485 5483
5590 5594 5599 5601 5603 5603 5605 5604 5591 5596 5590 5603 5605 5607 5602 5601 5604 5599 5585 5578 5565 5559 5534 5557 5568 5566 5563 5560 5554 5537 5524 5470 5481 5466 5495 5508 5491 5512 5522 5515 5509 5500 5491 5488 5486
5583 5584 5586 5592 5593 5595 5600 5591 5591 5584 5578 5588 5596 5597 5599 5595 5597 5592 5582 5577 5558 5537 5500 5526 5551 5561 5556 5550 5535 5532 5523 5477 5495 5485 5484 5508 5516 5539 5524 5517 5508 5502 5496 5494 5487
5572 5575 5575 5582 5584 5587 5592 5574 5595 5594 5594 5585 5585 5592 5589 5590 5592 5590 5578 5557 5558 5549 5542 5514 5546 5551 5553 5549 5538 5528 5498 5519 5469 5443 5479 5502 5520 5533 5524 5514 5507 5501 5498 5492 5488
5565 5563 5563 5574 5575 5577 5570 5587 5585 5589 5583 5590 5593 5586 5574 5585 5588 5584 5575 5570 5561 5556 5539 5528 5527 5526 5548 5549 5541 5536 5529 5496 5467 5467 5473 5488 5497 5524 5532 5521 5513 5508 5500 5496 5492
5556 5553 5553 5564 5567 5558 5559 5573 5579 5578 5584 5583 5574 5573 5588 5583 5579 5579 5581 5567 5558 5547 5540 5512 5522 5525 5533 5517 5527 5520 5500 5517 5502 5491 5451 5443 5511 5521 5533 5526 5512 5507 5505 5498 5494
5543 5538 5547 5552 5542 5507 5544 5565 5575 5570 5571 5575 5577 5583 5582 5573 5576 5573 5576 5569 5555 5549 5554 5537 5520 5516 5515 5523 5524 5525 5523 5518 5472 5473 5458 5464 5494 5541 5532 5523 5513 5507 5506 5503 5497
5529 5527 5535 5539 5537 5529 5535 5561 5565 5559 5564 5567 5572 5579 5577 5573 5576 5570 5560 5554 5552 5551 5543 5541 5521 5501 5526 5517 5515 5515 5520 5515 5495 5475 5462 5442 5504 5532 5525 5523 5514 5505 5501 5499 5498
5526 5517 5509 5520 5527 5539 5534 5543 5553 5557 5558 5564 5566 5568 5565 5552 5557 5551 5548 5549 5550 5548 5547 5537 5483 5523 5549 5549 5523 5504 5506 5512 5486 5429 5468 5479 5499 5534 5508 5507 5509 5500 5490 5486 5490
5519 5523 5526 5514 5510 5530 5539 5548 5548 5547 5552 5557 5558 5565 5565 5533 5523 5542 5541 5537 5541 5545 5534 5532 5515 5475 5489 5507 5519 5515 5504 5501 5484 5498 5482 5493 5482 5534 5527 5515 5510 5503 5498 5495 5494
5514 5515 5513 5512 5536 5528 5529 5532 5547 5548 5547 5553 5558 5563 5550 5555 5567 5547 5539 5536 5543 5529 5526 5520 5511 5477 5481 5480 5490 5499 5512 5508 5498 5470 5484 5503 5520 5553 5545 5537 5516 5516 5507 5499 5496
5517 5523 5539 5524 5513 5529 5548 5556 5555 5553 5548 5560 5564 5549 5541 5553 5550 5541 5539 5539 5539 5530 5519 5515 5495 5472 5513 5463 5472 5531 5520 5520 5512 5505 5518 5499 5539 5550 5551 5551 5539 5543 5529 5516 5513